Stations météo

Publicité
Vichy, France (7374): Température de l'air & dewpoint: 14.04.2019 14:00:00 - 20.04.2019 14:00:00 (CEST)Vichy, France (7374): Température de l'air 5cm: 14.04.2019 14:00:00 - 20.04.2019 14:00:00 (CEST)Vichy, France (7374): Vitesse du vent & gusts: 14.04.2019 14:00:00 - 20.04.2019 14:00:00 (CEST)Vichy, France (7374): Direction du vent: 14.04.2019 14:00:00 - 20.04.2019 14:00:00 (CEST)Vichy, France (7374): reduced air pressure: 14.04.2019 14:00:00 - 20.04.2019 14:00:00 (CEST)Vichy, France (7374): visibility: 14.04.2019 14:00:00 - 20.04.2019 14:00:00 (CEST)Vichy, France (7374): Ensoleillement: 14.04.2019 14:00:00 - 20.04.2019 14:00:00 (CEST)Vichy, France (7374): Quantités de précipitations: 14.04.2019 14:00:00 - 20.04.2019 14:00:00 (CEST)
Date & Time tt [°C] td [°C] tt 5cm [°C] ff [km/h] ff [knt] fx [km/h] fx [knt] dd ppp [hPa] vv [km] sd [min] rr [mm]
20.04.2019 14:00:00 20,2 8,5 24,3 5 3 14 8 SE 1023,5 20 50 0,0
20.04.2019 13:00:00 17,0 7,9 17,4 9 5 15 8 SSE 1024,7 19 55 0,0
20.04.2019 12:00:00 13,1 8,2 12,7 4 2 10 6 SW 1025,6 20 0 0,0
20.04.2019 11:00:00 11,8 9,2 9,9 3 1 5 3 SW 1026,0 20 0 0,0
20.04.2019 10:00:00 10,1 8,9 8,8 5 3 16 9 SE 1026,4 17 0 1,2
20.04.2019 09:00:00 9,5 7,8 8,2 6 4 13 7 S 1026,5 10 0 1,6
20.04.2019 08:00:00 9,1 6,9 6,2 0 0 4 2 N 1026,6 20 0 0,0
20.04.2019 07:00:00 7,5 4,8 4,0 0 0 7 4 N 1026,0 20 0 0,0
20.04.2019 06:00:00 7,7 4,5 4,1 3 2 10 6 SW 1025,7 20 0 0,0
20.04.2019 05:00:00 8,3 5,0 5,0 5 3 11 6 SSW 1025,7 20 0 0,0
20.04.2019 04:00:00 10,9 5,2 5,1 8 4 15 8 SSW 1025,3 20 0 0,0
20.04.2019 03:00:00 9,7 6,2 6,0 4 2 8 4 SSW 1025,3 20 0 0,0
20.04.2019 02:00:00 11,4 7,1 7,7 5 3 12 7 WSW 1025,3 20 0 0,0
20.04.2019 01:00:00 10,7 7,4 5,9 3 2 7 4 SW 1025,3 20 0 0,0
20.04.2019 00:00:00 11,6 7,3 7,1 0 0 8 4 N 1024,9 20 0 0,0
19.04.2019 23:00:00 14,1 7,6 8,2 3 1 10 5 W 1024,6 20 0 0,0
19.04.2019 22:00:00 18,1 7,2 11,3 5 3 10 6 NNW 1024,0 20 0 0,0
19.04.2019 21:00:00 19,7 7,4 15,1 6 4 17 9 NNE 1023,4 20 15 0,0
19.04.2019 20:00:00 22,1 6,3 19,8 14 8 23 13 NE 1022,6 20 60 0,0
19.04.2019 19:00:00 23,5 5,4 24,2 17 9 26 14 NE 1022,2 20 60 0,0
19.04.2019 18:00:00 24,3 5,6 28,5 17 9 30 16 ENE 1021,9 20 60 0,0
19.04.2019 17:00:00 24,3 6,1 26,8 22 12 32 17 NE 1021,9 19 60 0,0
19.04.2019 16:00:00 24,1 4,9 26,8 19 10 27 15 ENE 1022,3 20 56 0,0
19.04.2019 15:00:00 25,2 3,8 32,8 9 5 24 13 S 1022,6 20 60 0,0
19.04.2019 14:00:00 24,0 4,4 31,1 7 4 23 12 SSE 1023,0 20 60 0,0
19.04.2019 13:00:00 23,3 3,8 29,1 10 5 26 14 SSE 1023,4 19 60 0,0
19.04.2019 12:00:00 21,8 3,9 27,3 14 8 30 16 S 1023,7 20 60 0,0
19.04.2019 11:00:00 20,3 3,9 25,8 17 9 27 15 SSE 1024,1 20 60 0,0
19.04.2019 10:00:00 18,3 3,3 19,6 2 1 5 3 NNE 1024,4 20 60 0,0
19.04.2019 09:00:00 14,3 4,0 9,6 2 1 5 3 NNE 1024,4 20 60 0,0
19.04.2019 08:00:00 9,5 5,5 1,5 0 0 3 2 N 1024,4 20 44 0,0
19.04.2019 07:00:00 6,6 2,5 1,4 2 1 6 3 NNE 1023,8 20 0 0,0
19.04.2019 06:00:00 9,9 2,5 2,2 0 0 9 5 N 1022,5 20 0 0,0
19.04.2019 05:00:00 12,3 1,6 5,9 7 4 17 9 SSE 1022,0 20 0 0,0
19.04.2019 04:00:00 14,0 1,9 11,0 11 6 26 14 S 1021,5 20 0 0,0
19.04.2019 03:00:00 14,6 2,1 11,4 15 8 24 13 S 1021,3 20 0 0,0
19.04.2019 02:00:00 14,9 2,1 11,6 13 7 24 13 S 1021,3 20 0 0,0
19.04.2019 01:00:00 15,9 1,6 13,1 12 6 30 16 S 1020,9 20 0 0,0
19.04.2019 00:00:00 16,8 1,2 14,3 16 9 30 16 S 1020,3 20 0 0,0
18.04.2019 23:00:00 17,1 1,1 14,7 13 7 29 15 S 1019,7 20 0 0,0
18.04.2019 22:00:00 18,3 1,7 15,9 15 8 29 15 S 1018,9 20 0 0,0
18.04.2019 21:00:00 19,7 3,0 17,2 14 8 28 15 S 1017,9 20 0 0,0
18.04.2019 20:00:00 21,2 3,4 19,2 13 7 34 18 S 1016,8 20 0 0,0
18.04.2019 19:00:00 23,1 3,1 22,6 19 10 34 18 S 1016,0 20 34 0,0
18.04.2019 18:00:00 24,8 4,0 26,5 20 11 32 18 S 1015,1 20 60 0,0
18.04.2019 17:00:00 25,8 2,5 31,8 18 10 32 17 S 1014,9 20 60 0,0
18.04.2019 16:00:00 26,0 3,3 29,8 18 10 32 17 S 1014,9 20 60 0,0
18.04.2019 15:00:00 25,3 3,3 28,9 13 7 29 16 SSE 1015,0 18 60 0,0
18.04.2019 14:00:00 24,2 1,7 27,4 18 10 32 17 S 1015,3 20 60 0,0
18.04.2019 13:00:00 22,6 2,6 28,5 15 8 28 15 SSE 1016,1 20 60 0,0
18.04.2019 12:00:00 20,8 2,6 25,2 17 9 32 18 S 1016,6 20 60 0,0
18.04.2019 11:00:00 19,0 1,9 22,8 21 11 32 17 S 1017,0 20 60 0,0
18.04.2019 10:00:00 16,6 3,6 17,6 10 5 18 10 S 1017,4 20 50 0,0
18.04.2019 09:00:00 11,9 5,3 5,5 4 2 6 4 NNE 1017,9 20 60 0,0
18.04.2019 08:00:00 5,9 4,2 1,6 0 0 4 2 N 1018,3 20 20 0,0
18.04.2019 07:00:00 5,2 3,5 1,7 0 0 4 2 N 1018,0 20 0 0,0
18.04.2019 06:00:00 6,0 4,2 2,7 0 0 5 3 N 1017,6 20 0 0,0
18.04.2019 05:00:00 6,4 4,6 2,8 2 1 4 2 NNE 1017,6 20 0 0,0
18.04.2019 04:00:00 9,1 4,9 3,9 0 0 5 3 N 1017,3 20 0 0,0
18.04.2019 03:00:00 10,7 4,8 4,4 5 3 13 7 SSE 1017,0 20 0 0,0
18.04.2019 02:00:00 13,2 4,6 9,1 9 5 25 14 SE 1017,3 20 0 0,0
18.04.2019 01:00:00 14,6 4,3 10,8 13 7 24 13 S 1017,2 20 0 0,0
18.04.2019 00:00:00 14,8 4,2 8,1 10 5 21 11 S 1016,8 20 0 0,0
17.04.2019 23:00:00 16,0 5,3 8,5 12 7 22 12 S 1016,5 20 0 0,0
17.04.2019 22:00:00 12,7 8,0 8,9 0 0 6 3 N 1016,4 20 0 0,0
17.04.2019 21:00:00 16,6 7,2 13,2 5 3 19 10 NE 1015,2 20 0 0,0
17.04.2019 20:00:00 18,3 7,1 16,4 14 8 31 17 NE 1014,6 20 0 0,0
17.04.2019 19:00:00 19,6 6,7 19,0 17 9 30 16 NE 1014,3 20 33 0,0
17.04.2019 18:00:00 20,6 7,2 23,0 18 10 30 16 ENE 1014,3 20 42 0,0
17.04.2019 17:00:00 21,7 6,4 24,9 8 5 30 16 SSE 1014,4 20 46 0,0
17.04.2019 16:00:00 21,5 7,7 27,7 3 2 27 14 NNE 1015,1 20 60 0,0
17.04.2019 15:00:00 20,4 7,0 27,8 11 6 23 12 NNE 1015,7 20 60 0,0
17.04.2019 14:00:00 19,3 7,4 29,6 2 1 12 7 NE 1016,6 20 60 0,0
17.04.2019 13:00:00 18,7 9,2 26,4 3 2 12 7 S 1017,5 20 60 0,0
17.04.2019 12:00:00 16,1 8,8 24,7 5 3 11 6 N 1018,3 20 60 0,0
17.04.2019 11:00:00 14,0 7,7 19,2 2 1 8 4 NNE 1019,1 20 60 0,0
17.04.2019 10:00:00 10,8 6,3 11,7 3 2 8 5 SSE 1019,7 20 60 0,0
17.04.2019 09:00:00 7,1 5,6 2,7 4 2 8 4 S 1020,5 20 60 0,0
17.04.2019 08:00:00 3,0 2,7 -1,1 0 0 4 2 N 1021,3 13 41 0,0
17.04.2019 07:00:00 0,8 0,5 -1,6 3 2 8 5 SW 1021,6 11 0 0,0
17.04.2019 06:00:00 1,9 1,6 -1,6 6 3 9 5 SSW 1021,2 14 0 0,0
17.04.2019 05:00:00 1,4 1,1 -1,2 3 1 5 3 SSW 1021,5 13 0 0,0
17.04.2019 04:00:00 1,5 1,2 -1,7 2 1 4 2 SW 1021,6 14 0 0,0
17.04.2019 03:00:00 2,0 1,6 -1,2 0 0 3 2 N 1021,7 15 0 0,0
17.04.2019 02:00:00 2,8 2,4 -0,6 0 0 3 1 N 1021,9 18 0 0,0
17.04.2019 01:00:00 3,5 3,1 -0,1 2 1 3 2 W 1022,0 18 0 0,0
17.04.2019 00:00:00 4,6 4,0 1,5 0 0 4 2 N 1021,7 20 0 0,0
16.04.2019 23:00:00 5,7 5,0 1,9 2 1 4 2 W 1021,3 20 0 0,0
16.04.2019 22:00:00 7,4 5,7 3,6 0 0 5 3 N 1020,8 20 0 0,0
16.04.2019 21:00:00 10,4 6,5 5,8 0 0 9 5 N 1019,8 20 11 0,0
16.04.2019 20:00:00 14,5 6,6 13,5 6 4 24 13 W 1018,8 20 37 0,0
16.04.2019 19:00:00 15,0 6,0 15,3 10 5 30 16 WNW 1018,4 20 20 0,0
16.04.2019 18:00:00 15,1 6,6 15,1 10 5 27 15 WNW 1018,0 20 0 0,0
16.04.2019 17:00:00 15,7 8,9 16,3 6 3 19 10 NNW 1017,5 20 0 0,0
16.04.2019 16:00:00 15,9 9,1 16,6 9 5 25 14 S 1017,3 20 4 0,0
16.04.2019 15:00:00 15,6 9,7 16,1 14 7 23 13 S 1017,4 20 0 0,0
16.04.2019 14:00:00 14,0 9,4 15,6 11 6 24 13 S 1017,7 20 0 0,0
16.04.2019 13:00:00 13,1 9,5 14,2 18 10 32 18 SSE 1018,0 20 1 0,0
16.04.2019 12:00:00 11,4 9,1 10,6 17 9 30 16 S 1018,3 20 0 0,0
16.04.2019 11:00:00 9,9 9,0 9,6 12 6 25 13 S 1018,1 20 0 0,2
16.04.2019 10:00:00 9,4 8,5 8,7 14 7 24 13 S 1017,9 7 0 0,6
16.04.2019 09:00:00 9,0 7,9 8,2 11 6 22 12 S 1017,5 13 0 1,0
16.04.2019 08:00:00 8,7 7,6 7,9 11 6 17 9 S 1017,1 9 0 1,2
16.04.2019 07:00:00 8,7 7,3 7,8 4 2 14 7 S 1016,4 12 0 1,4
16.04.2019 06:00:00 9,5 6,2 7,8 8 4 19 11 SSW 1015,8 17 0 1,0
16.04.2019 05:00:00 11,0 4,7 7,9 9 5 22 12 SSW 1015,3 20 0 0,2
16.04.2019 04:00:00 11,9 3,6 9,1 12 6 22 12 S 1014,6 20 0 0,0
16.04.2019 03:00:00 12,0 3,0 9,4 6 3 10 5 S 1014,8 20 0 0,0
16.04.2019 02:00:00 13,3 1,6 11,5 4 2 28 15 SSW 1014,8 20 0 0,0
16.04.2019 01:00:00 14,4 1,0 12,6 16 9 36 19 SSW 1015,0 20 0 0,0
16.04.2019 00:00:00 14,2 -0,3 12,6 13 7 38 20 S 1013,2 20 0 0,0
15.04.2019 23:00:00 14,4 -0,5 12,5 19 10 34 18 S 1012,2 20 0 0,0
15.04.2019 22:00:00 14,6 0,4 12,8 18 10 41 22 S 1012,1 20 0 0,0
15.04.2019 21:00:00 15,7 0,3 14,0 25 14 38 21 SSE 1011,8 20 0 0,0
15.04.2019 20:00:00 17,0 0,6 15,6 10 5 20 11 ESE 1010,9 20 0 0,0
15.04.2019 19:00:00 17,7 1,2 17,0 10 5 19 10 E 1010,8 20 0 0,0
15.04.2019 18:00:00 17,8 1,3 19,4 5 3 16 9 N 1011,2 20 0 0,0
15.04.2019 17:00:00 17,4 0,5 24,0 6 3 14 8 N 1011,8 20 41 0,0
15.04.2019 16:00:00 16,9 -1,8 24,1 5 3 16 8 E 1012,9 20 60 0,0
15.04.2019 15:00:00 16,0 -1,6 24,9 8 4 18 10 NE 1014,3 20 60 0,0
15.04.2019 14:00:00 13,9 -0,6 20,3 3 2 17 9 SE 1015,4 18 45 0,0
15.04.2019 13:00:00 12,0 1,3 20,3 7 4 27 14 NE 1016,7 19 60 0,0
15.04.2019 12:00:00 10,3 -1,1 19,1 11 6 19 11 ENE 1018,2 19 60 0,0
15.04.2019 11:00:00 8,8 -2,8 14,4 4 2 14 8 SSE 1019,4 20 60 0,0
15.04.2019 10:00:00 5,3 -3,5 7,6 4 2 15 8 SSE 1020,5 19 60 0,0
15.04.2019 09:00:00 2,0 -2,5 -1,8 8 4 11 6 S 1021,5 17 60 0,0
15.04.2019 08:00:00 -1,7 -3,7 -7,4 4 2 10 5 SE 1021,9 14 37 0,0
15.04.2019 07:00:00 -4,8 -6,2 -7,3 0 0 2 1 N 1022,3 13 0 0,0
15.04.2019 06:00:00 -4,6 -6,0 -7,4 0 0 3 2 N 1022,4 13 0 0,0
15.04.2019 05:00:00 -4,3 -6,1 -7,3 3 2 4 2 W 1022,4 14 0 0,0
15.04.2019 04:00:00 -3,5 -5,4 -6,7 0 0 5 3 N 1022,8 15 0 0,0
15.04.2019 03:00:00 -3,1 -5,1 -6,7 0 0 4 2 N 1023,1 17 0 0,0
15.04.2019 02:00:00 -2,7 -4,7 -5,8 3 1 3 2 W 1023,3 19 0 0,0
15.04.2019 01:00:00 -2,2 -4,4 -5,1 0 0 5 3 N 1023,4 20 0 0,0
15.04.2019 00:00:00 -1,3 -4,0 -4,8 0 0 3 1 N 1023,1 20 0 0,0
14.04.2019 23:00:00 -0,1 -3,8 -3,6 2 1 4 2 W 1023,1 20 0 0,0
14.04.2019 22:00:00 1,8 -3,1 -3,1 2 1 8 4 N 1022,3 20 0 0,0
14.04.2019 21:00:00 6,5 -4,3 1,9 7 4 15 8 NE 1021,1 20 9 0,0
14.04.2019 20:00:00 9,1 -5,6 7,7 11 6 23 12 NE 1020,5 20 60 0,0
14.04.2019 19:00:00 10,4 -4,8 13,6 10 6 30 16 NE 1020,0 20 60 0,0
14.04.2019 18:00:00 10,4 -5,2 13,6 14 8 26 14 ENE 1019,3 20 47 0,0
14.04.2019 17:00:00 10,3 -5,7 18,7 13 7 35 19 NE 1019,4 20 60 0,0
14.04.2019 16:00:00 9,9 -6,9 17,8 17 9 35 19 NE 1019,7 20 55 0,0
14.04.2019 15:00:00 9,5 -5,6 19,3 18 10 33 18 NNE 1019,8 20 60 0,0
14.04.2019 14:00:00 8,4 -7,8 18,6 16 9 30 16 NNE 1019,9 19 60 0,0

tt = Température de l'air
td = dewpoint
tt 5cm = Température de l'air 5cm
ff = Vitesse du vent
fx = gusts
dd = Direction du vent
ppp = reduced air pressure
vv = visibility
sd = Ensoleillement
rr = Quantités de précipitations

stations d'obs. à proximité